Terminal Aerodrome Forecast
Issued by NWS Anchorage, AK

Home | Current Version | Previous Version | Text Only | Print | Product List | Glossary On
Versions: 1 2 3 4 5 6 7 8 9 10 11 12 13 14 15 16 17 18 19 20 21 22 23 24 25 26 27 28 29 30 31 32 33 34 35 36 37 38 39 40 41 42 43 44 45 46 47 48 49 50
000
FTAK31 PANC 020520
TAFANC
TAF
PANC 020520Z 0206/0312 VRB05KT P6SM VCFG FEW005 BKN200
      TEMPO 0208/0212 3SM BR BKN005
     FM021800 02006KT P6SM BKN120
     FM030600 VRB05KT P6SM VCSH SCT040 BKN060=

USA.gov is the U.S. government's official web portal to all federal, state and local government web resources and services.